Goshen, IN

5:48 PM EDT on October 20, 2017 (GMT -0400)
Goshen Municipal

Weather History for KGSH - October, 2012

Change the Weather History Date:

Saturday, October 6, 2012

  Actual Average Record
Temperature  
Mean Temperature 40 °F -  
Max Temperature 48 °F 65 °F 89 °F (1963)
Min Temperature 35 °F 45 °F 26 °F (1952)
Degree Days  
Heating Degree Days 24    
Moisture  
Dew Point 33 °F    
Average Humidity 72    
Maximum Humidity 86    
Minimum Humidity 59    
Precipitation  
Precipitation 0.00 in - - ()
Sea Level Pressure  
Sea Level Pressure 30.10 in    
Wind  
Wind Speed 8 mph (WSW)    
Max Wind Speed 16 mph    
Max Gust Speed 21 mph    
Visibility 10 miles    
Events      
Averages and records for this station are not official NWS values.
T = Trace of Precipitation, MM = Missing Value Source: NWS Daily Summary

Daily Weather History Graph

Daily Weather History Graph

Search for Another Location

Airport or City:

Trip Planner

Search our weather history database for the weather conditions in past years. The results will help you decide how hot, cold, wet, or windy it might be!

Date:

Astronomy

Oct. 06, 2012 Rise Set
Actual Time 7:45 AM EDT 7:15 PM EDT
Civil Twilight 7:18 AM EDT 7:43 PM EDT
Nautical Twilight 6:46 AM EDT 8:15 PM EDT
Astronomical Twilight 6:13 AM EDT 8:47 PM EDT
Moon 11:27 PM EDT (10/6) 1:43 PM EDT (10/6)
Length of Visible Light 12h 25m
Length of Day
11h 29m
Waning Gibbous, 65% of the Moon is Illuminated
Oct 6
Waning Gibbous
Oct 8
Last Quarter
Oct 15
New
Oct 21
First Quarter
Oct 29
Full

Hourly Weather History & Observations

Time (EDT) Temp. Windchill Dew Point Humidity Pressure Visibility Wind Dir Wind Speed Gust Speed Precip Events Conditions
12:53 AM 39.9 °F 35.1 °F 36.0 °F 86% 30.04 in 10.0 mi WSW 6.9 mph - N/A   Clear
1:53 AM 39.0 °F 34.8 °F 35.1 °F 86% 30.04 in 10.0 mi WSW 5.8 mph - N/A   Clear
2:53 AM 37.9 °F 33.5 °F 34.0 °F 86% 30.04 in 10.0 mi SW 5.8 mph - N/A   Clear
3:53 AM 37.0 °F 31.6 °F 33.1 °F 86% 30.03 in 10.0 mi SW 6.9 mph - N/A   Clear
4:53 AM 36.0 °F 30.3 °F 30.9 °F 82% 30.03 in 10.0 mi WSW 6.9 mph - N/A   Clear
5:53 AM 35.1 °F 29.3 °F 30.0 °F 82% 30.04 in 10.0 mi SW 6.9 mph - N/A   Mostly Cloudy
6:53 AM 35.1 °F 27.9 °F 28.9 °F 78% 30.05 in 10.0 mi WSW 9.2 mph - N/A   Scattered Clouds
7:53 AM 35.1 °F 27.9 °F 30.0 °F 82% 30.08 in 10.0 mi WSW 9.2 mph - N/A   Scattered Clouds
8:53 AM 37.0 °F 30.4 °F 30.0 °F 76% 30.09 in 10.0 mi WSW 9.2 mph - N/A   Clear
10:53 AM 45.0 °F 38.5 °F 36.0 °F 71% 30.11 in 10.0 mi West 13.8 mph - N/A   Overcast
11:53 AM 46.9 °F - 35.1 °F 63% 30.11 in 10.0 mi West 13.8 mph 19.6 mph N/A   Overcast
12:53 PM 46.9 °F - 35.1 °F 63% 30.12 in 10.0 mi West 16.1 mph 20.7 mph N/A   Overcast
1:53 PM 46.9 °F - 33.1 °F 59% 30.12 in 10.0 mi West 10.4 mph - N/A   Overcast
2:53 PM 46.0 °F 39.6 °F 33.1 °F 61% 30.12 in 10.0 mi West 15.0 mph - N/A   Overcast
3:53 PM 46.0 °F 41.0 °F 33.1 °F 61% 30.12 in 10.0 mi West 10.4 mph - N/A   Overcast
4:53 PM 45.0 °F 40.1 °F 34.0 °F 65% 30.12 in 10.0 mi West 9.2 mph - N/A   Overcast
5:53 PM 45.0 °F 39.7 °F 33.1 °F 63% 30.14 in 10.0 mi West 10.4 mph - N/A   Overcast
6:53 PM 44.1 °F 39.0 °F 33.1 °F 65% 30.15 in 10.0 mi West 9.2 mph - N/A   Overcast
7:53 PM 44.1 °F 40.1 °F 34.0 °F 68% 30.16 in 10.0 mi WSW 6.9 mph - N/A   Overcast
8:53 PM 44.1 °F 40.1 °F 33.1 °F 65% 30.16 in 10.0 mi WSW 6.9 mph - N/A   Overcast
9:53 PM 43.0 °F 41.3 °F 34.0 °F 71% 30.16 in 10.0 mi WSW 3.5 mph - N/A   Overcast
10:53 PM 43.0 °F - 35.1 °F 74% 30.16 in 10.0 mi Calm Calm - N/A   Overcast